This is the latest recevied weather packets stored in our database for station/object KQ4WWD. If no packets are shown the sender has not sent any weather packets the latest 10 day(s).
| Time | Temp. | Humidity | Pressure | Rain* | Wind** | Luminosity | Snow |
|---|---|---|---|---|---|---|---|
| 1788133327 | 25.56° C | 95% | 1016.6 hPa | 0 mm | - | 2 W/m² | - |
| 1788133022 | 25.56° C | 95% | 1016.7 hPa | 0 mm | - | 5 W/m² | - |
| 1788132717 | 25.56° C | 95% | 1016.8 hPa | 0 mm | - | 8 W/m² | - |
| 1788132413 | 25.56° C | 95% | 1016.8 hPa | 0 mm | - | 11 W/m² | - |
| 1788132109 | 25.56° C | 95% | 1016.6 hPa | 0 mm | - | 14 W/m² | - |
| 1788131805 | 25.56° C | 95% | 1016.4 hPa | 0 mm | - | 17 W/m² | - |
| 1788131504 | 25.56° C | 95% | 1016.8 hPa | 0 mm | - | 16 W/m² | - |
| 1788131199 | 26.11° C | 95% | 1017 hPa | 0 mm | - | 14 W/m² | - |
| 1788130899 | 26.11° C | 95% | 1016.9 hPa | 0 mm | - | 14 W/m² | - |
| 1788130594 | 26.11° C | 95% | 1016.7 hPa | 0 mm | - | 15 W/m² | - |
| 1788130289 | 25.56° C | 95% | 1016.7 hPa | 0 mm | - | 22 W/m² | - |
| 1788129988 | 25.56° C | 95% | 1016.5 hPa | 0 mm | - | 22 W/m² | - |
| 1788129684 | 25.56° C | 95% | 1016.4 hPa | 0 mm | - | 25 W/m² | - |
| 1788129381 | 25.56° C | 95% | 1016.6 hPa | 0 mm | - | 23 W/m² | - |
| 1788129081 | 25.56° C | 95% | 1016.8 hPa | 0 mm | - | 24 W/m² | - |
| 1788128781 | 25.56° C | 95% | 1016.7 hPa | 0 mm | - | 25 W/m² | - |
| 1788128477 | 25.56° C | 95% | 1016.5 hPa | 0 mm | - | 30 W/m² | - |
| 1788128188 | 25.56° C | 95% | 1016.5 hPa | 0 mm | - | 31 W/m² | - |
| 1788127868 | 25.56° C | 95% | 1016.3 hPa | 0 mm | - | 42 W/m² | - |
| 1788127564 | 25.56° C | 96% | 1016.2 hPa | 0 mm | - | 45 W/m² | - |
| 1788127262 | 25.56° C | 96% | 1016.2 hPa | 0 mm | - | 49 W/m² | - |
| 1788126961 | 25.56° C | 96% | 1015.9 hPa | 0 mm | - | 50 W/m² | - |
| 1788126655 | 25.56° C | 96% | 1015.9 hPa | 1.27 mm | - | 53 W/m² | - |
| 1788126351 | 25° C | 96% | 1016 hPa | 1.27 mm | - | 62 W/m² | - |
| 1788126046 | 25° C | 96% | 1016.1 hPa | 0 mm | - | 60 W/m² | - |
* Rain latest hour (hover to see other rain measurements)
** Current wind speed in m/s (hover to see current wind gust speed)